Location: Boiro
(42.6475°N, 8.8834°W)
Time: 13:38:57
(UTC+02:00)

Envisat - Visible Passes

Search period start: 23 October 2021 00:00
Search period end: 01 November 2021 23:00
Orbit: 764 x 766 km, 98.2° (Epoch: 22 October)

Date Brightness Start Highest point End Pass type
(mag) Time Alt. Az. Time Alt. Az. Time Alt. Az.
23 Oct 4.9 06:58:38 10° NNE 07:03:07 31° E 07:07:34 10° SSE visible
24 Oct 6.0 06:23:18 10° ENE 06:25:54 14° E 06:28:30 10° ESE visible
24 Oct 2.9 08:00:21 10° N 08:05:26 71° WNW 08:10:28 10° SSW visible
25 Oct 3.8 07:23:35 10° NNE 07:28:34 53° E 07:33:30 10° S visible
25 Oct 6.4 20:20:55 10° WSW 20:23:14 13° W 20:25:35 10° WNW visible
26 Oct 5.3 06:47:23 10° NE 06:51:30 24° E 06:55:35 10° SSE visible
26 Oct 3.4 08:25:54 10° N 08:30:38 41° WNW 08:35:22 10° SW visible
27 Oct 6.2 06:13:08 10° ENE 06:14:13 11° E 06:15:18 10° E visible
27 Oct 3.0 07:48:48 10° NNE 07:53:55 88° WNW 07:58:59 10° SSW visible
28 Oct 4.3 07:12:10 10° NNE 07:16:59 42° E 07:21:46 10° SSE visible
28 Oct 6.1 20:08:21 10° SW 20:11:35 17° W 20:14:49 10° NW visible
29 Oct 5.6 06:36:15 10° NE 06:39:52 19° E 06:43:27 10° SE visible
29 Oct 3.1 08:14:15 10° N 08:19:10 52° WNW 08:24:04 10° SSW visible
30 Oct 3.2 07:37:17 10° NNE 07:42:23 73° ESE 07:47:27 10° S visible
31 Oct 4.7 06:00:49 10° NNE 06:05:24 33° E 06:09:57 10° SSE visible
31 Oct 5.9 18:56:06 10° SW 18:59:56 21° W 19:03:47 10° NW visible
01 Nov 5.9 05:25:19 10° NE 05:28:12 15° E 05:31:06 10° SE visible
01 Nov 2.9 07:02:38 10° N 07:07:41 66° WNW 07:12:41 10° SSW visible
